www.pogodaiklimat.ru

Погода и климат >> Архив погоды >> Азербайджан >> Баку (дендропарк)


ПОГОДА в Баку (дендропарк)

  • Прогноз погоды в Баку (дендропарк)
  • Монитор погоды в Баку (дендропарк)

АРХИВ ПОГОДЫ в Баку (дендропарк)

Время (UTC), дата Ветер
(напр.,м/с)
 
Видим.   Явления Облачность Т
(С)
Тd
(С)
f
(%)
Тe
(С)
Тes
(С)
Комфортность P
(гПа)
Po
(гПа)
Тmin
(С)
Tmax
(С)
R
(мм)
R24
(мм)
S
(см)
00 12.06 Ю 3 20 км 6/0
[Ci sp]
+23.8 +11.9 47 +25 +25 комфорт 1010.7 1005.3
06 12.06 Ю 3 20 км 6/0
[Ci ing]
+27.5 +11.2 36 +28 +39 жарко 1011.8 1006.5 +23.5
12 12.06 ЮВ 2 20 км ясно +33.4 +5.5 18 +31 +42 жарко 1010.4 1005.5
18 12.06 штиль 0 20 км 4/0
[Ci fib]
+24.7 +14.9 54 +27 +27 жарко 1010.9 1005.7 +34.1
00 13.06 С 6 20 км ясно +22.0 +16.2 70 +26 +26 душно 1011.2 1005.8
06 13.06 СЗ 5 20 км 8/6 600 м
[Cu med, cong Cc]
+28.7 +9.5 30 +29 +31 жарко 1010.0 1004.6 +21.9
12 13.06 С 4 20 км 4/0
[Ci ing]
+33.6 +7.7 20 +32 +39 жарко 1008.5 1003.4
18 13.06 штиль 0 20 км 4/0
[Ci ing]
+24.0 +13.8 53 +26 +26 жарко 1010.2 1004.8 +34.0 0.4
00 14.06 СЗ 2 20 км ясно +22.0 +23.1 100 +29 +29 очень
душно
1011.3 1005.9
06 14.06 С 8 20 км ясно +30.1 +12.7 34 +31 +34 жарко 1012.3 1007.3 +21.9
12 14.06 СЗ 8 20 км 3/0
[Ci fib]
+30.6 +17.7 46 +35 +37 очень
душно
1013.4 1008.5
18 14.06 СЗ 9 20 км ясно +24.2 +16.9 64 +28 +28 душно 1015.1 1009.9 +32.1
00 15.06 СЗ 8 20 км ясно +21.3 +16.7 75 +25 +25 комфорт 1014.8 1009.5
06 15.06 СЗ 7 20 км ясно +25.6 +15.8 55 +29 +33 душно 1015.5 1010.1 +21.0
12 15.06 С 3 20 км ясно +29.9 +10.7 30 +30 +39 жарко 1013.3 1008.3
18 15.06 штиль 0 20 км ясно +21.8 +16.0 70 +26 +26 душно 1013.6 1008.3 +31.1
00 16.06 штиль 0 20 км ясно +20.0 +17.0 83 +23 +23 комфорт 1012.7 1007.1
06 16.06 штиль 0 20 км ясно +28.4 +12.8 38 +30 +49 жарко 1011.9 1006.6 +19.8
12 16.06 ЮВ 2 20 км ясно +32.3 +9.4 24 +31 +43 жарко 1009.6 1004.7
18 16.06 СЗ 5 20 км ясно +24.3 +15.1 56 +27 +27 жарко 1011.7 1006.5 +35.1
00 17.06 штиль 0 20 км ясно +21.6 +17.6 78 +26 +26 душно 1010.1 1004.7
06 17.06 штиль 0 20 км ясно +29.6 +11.8 33 +30 +49 жарко 1009.2 1004.2 +21.5
12 17.06 СЗ 2 20 км ясно +32.0 +10.7 27 +32 +43 жарко 1008.7 1003.6
18 17.06 С 3 20 км 4/0
[Ci fib]
+25.0 +14.0 50 +27 +27 жарко 1009.5 1004.2 +33.7
00 18.06 С 4 20 км ясно +24.0 +17.0 65 +28 +28 душно 1009.5 1004.2
06 18.06 С 5 20 км 6/0
[Ac cast]
+28.8 +13.8 40 +31 +35 жарко 1010.5 1005.4 +23.9
12 18.06 С 6 20 км ясно +29.8 +17.0 46 +33 +38 душно 1010.0 1005.2
18 18.06 СЗ 10 20 км ясно +25.5 +14.5 51 +28 +28 жарко 1010.3 1005.2 +31.1

 

Местоположение метеостанции Баку (дендропарк) (Азербайджан): широта 40.42 долгота 49.78 высота над уровнем моря 85 м.

В архиве по умолчанию представлена погода в Баку (дендропарк) за последнюю неделю. Архивные данные за месяц целиком и за предыдущие месяцы, начиная с января 2011 года, Вы можете получить, выбрав интересующий диапазон дат из раскрывающегося списка и нажав кнопку "Ввод!".


*Определитесь, кто Вы:
робот инопланетянин человек

Внимание! Время в таблицах - всемирное. Для получения местного времени необходимо прибавить поправку, которая равна 4 ч.

Смотрите также архив погоды в соседних городах и на ближайших метеорологических станциях:

Погода в Баку (Азербайджан) (25 км)
Погода в Алате (Азербайджан) (60 км)
Погода в Маразе (Азербайджан) (73 км)
Погода в Шемахе (Азербайджан) (100 км)
Погода в Нефтечале (Азербайджан) (122 км)
Погода в Курдамире (Азербайджан) (137 км)
Погода в Губе (Азербайджан) (150 км)
Погода в Габале (Азербайджан) (173 км)
Погода в Геокчае (Азербайджан) (173 км)
Погода в Парсабаде (Иран) (180 км)

Пояснения к столбцам:

Ветер - указаны скорость ветра в м/с - средняя за 10 мин, порывы в срок и между сроками (в фигурных скобках) и направление, откуда дует ветер: С - северный, СВ - северо-восточный, В - восточный, ЮВ - юго-восточный, Ю - южный, ЮЗ - юго-западный, З - западный, СЗ - северо-западный.
Видимость - горизонтальная дальность видимости в метрах или километрах. При видимости от 1 до 10 км при отсутствии осадков обычно наблюдается дымка, при ухудшении видимости до 1 км и менее - туман. В сухую погоду видимость может ухудшаться дымом, пылью или мглою.
Явления - указаны атмосферные явления, наблюдавшиеся в срок или в последний час перед сроком; фигурными скобками обозначены явления, наблюдавшиеся между сроками (за 1-3 часа до срока); квадратными скобками обозначены град или гололедные отложения с указанием их диаметра в мм.
Облачность - указаны через наклонную черту общая и нижняя облачность в баллах и высота нижней границы облаков в метрах; квадратными скобками обозначены формы облаков: Ci - перистые, Cs - перисто-слоистые, Cc - перисто-кучевые, Ac - высококучевые, As - высокослоистые, Sc - слоисто-кучевые, Ns - слоисто-дождевые, Cu - кучевые, Cb - кучево-дождевые. Подробнее классификацию облаков см. в Атласе облаков (PDF).
T - Температура воздуха - температура, измеренная на высоте 2 м над землей.
Td - Температура точки росы - температура, при понижении до которой содержащийся в воздухе водяной пар достигнет насыщения.
f - Относительная влажность воздуха - влажноcть воздуха, измеренная на высоте 2 м над землей.
Te - Эффективная температура - температура, которую ощущает одетый по сезону человек в тени. Характеристика душности погоды. При расчете учитывается влияние влажности воздуха и скорости ветра на теплоощущения человека.
Tes - Эффективная температура на солнце - температура, которую ощущает человек, с поправкой на солнечный нагрев. Характеристика знойности погоды. Зависит от высоты солнца над горизонтом, облачности и скорости ветра. Ночью, в пасмурную погоду, а также при ветре 12 м/с и более поправка равна нулю.
P - Атмосферное давление - приведенное к уровню моря атмосферное давление.
Po - Атмосферное давление - измеренное на уровне метеостанции атмосферное давление.
Tmin - Минимальная температура - минимум температуры воздуха на высоте 2 м над землей.
Tmax - Максимальная температура - максимум температуры воздуха на высоте 2 м над землей.
R - Количество осадков - Количество выпавших осадков за период времени, мм. При наведении курсора мыши на число - период времени, за который выпало указанное количество осадков.
R24 - Количество осадков - Количество выпавших осадков за 24 часа, мм.
S - Снежный покров - Высота снежного покрова, см. При наведении курсора мыши на число - состояние снежного покрова и степень покрытия местности в баллах.